When you browse on this site, cookies collect data to enhance your experience and personalize the content and advertising you see.
Visit our Privacy Policy to learn more. By continuing to use the site, you agree to this use of cookies and data.
  • In Hungary
  • List of Countries
  • For 7 days
  • Water Temperature
  • Weather Map
  • News
  • Weather Widgets
  • user-avatar
    Login

    Hourly Weather Dubivka

    Today, 25 August, Sunday

    Time Temperature Precipitation Wind Pressure Humidity
    00:00 +25°C° 0 mm 4 mps 749 mmHg 60%
    01:00 +25°C° 0 mm 4 mps 748 mmHg 63%
    02:00 +23°C° 0 mm 4 mps 748 mmHg 67%
    03:00 +23°C° 0 mm 4 mps 748 mmHg 67%
    04:00 +22°C° 0 mm 4 mps 748 mmHg 69%
    05:00 +22°C° 0 mm 4 mps 749 mmHg 71%
    06:00 +22°C° 0 mm 4 mps 749 mmHg 73%
    07:00 +23°C° 0 mm 5 mps 749 mmHg 67%
    08:00 +26°C° 0 mm 5 mps 749 mmHg 61%
    09:00 +28°C° 0 mm 6 mps 750 mmHg 53%
    10:00 +29°C° 0 mm 6 mps 749 mmHg 50%
    11:00 +30°C° 0 mm 6 mps 749 mmHg 47%
    12:00 +32°C° 0 mm 6 mps 749 mmHg 43%
    13:00 +33°C° 0 mm 6 mps 749 mmHg 43%
    14:00 +33°C° 0 mm 5 mps 749 mmHg 42%
    15:00 +33°C° 0 mm 5 mps 749 mmHg 41%
    16:00 +33°C° 0 mm 5 mps 749 mmHg 43%
    17:00 +32°C° 0 mm 5 mps 749 mmHg 45%
    18:00 +30°C° 0 mm 5 mps 749 mmHg 47%
    19:00 +29°C° 0 mm 5 mps 749 mmHg 48%
    20:00 +27°C° 0 mm 5 mps 750 mmHg 48%
    21:00 +26°C° 0 mm 6 mps 750 mmHg 49%
    22:00 +25°C° 0 mm 5 mps 750 mmHg 47%
    23:00 +23°C° 0 mm 5 mps 750 mmHg 46%

    Tomorrow, 26 August, Monday

    Time Temperature Precipitation Wind Pressure Humidity
    00:00 +23°C° 0 mm 5 mps 750 mmHg 44%
    01:00 +22°C° 0 mm 5 mps 751 mmHg 46%
    02:00 +21°C° 0 mm 5 mps 751 mmHg 49%
    03:00 +21°C° 0 mm 4 mps 751 mmHg 51%
    04:00 +20°C° 0 mm 4 mps 751 mmHg 56%
    05:00 +20°C° 0 mm 4 mps 751 mmHg 61%
    06:00 +19°C° 0 mm 5 mps 751 mmHg 67%
    07:00 +20°C° 0 mm 5 mps 751 mmHg 62%
    08:00 +22°C° 0 mm 5 mps 752 mmHg 58%
    09:00 +23°C° 0 mm 6 mps 752 mmHg 53%
    10:00 +25°C° 0 mm 5 mps 752 mmHg 49%
    11:00 +27°C° 0 mm 5 mps 752 mmHg 45%
    12:00 +28°C° 0 mm 5 mps 752 mmHg 41%
    13:00 +28°C° 0 mm 5 mps 752 mmHg 39%
    14:00 +29°C° 0 mm 5 mps 752 mmHg 36%
    15:00 +29°C° 0 mm 5 mps 752 mmHg 34%
    16:00 +28°C° 0 mm 5 mps 751 mmHg 35%
    17:00 +28°C° 0 mm 5 mps 751 mmHg 35%
    18:00 +27°C° 0 mm 4 mps 751 mmHg 35%
    19:00 +26°C° 0 mm 4 mps 751 mmHg 37%
    20:00 +23°C° 0 mm 4 mps 751 mmHg 40%
    21:00 +21°C° 0 mm 4 mps 751 mmHg 42%
    22:00 +21°C° 0 mm 4 mps 751 mmHg 43%
    23:00 +20°C° 0 mm 4 mps 751 mmHg 44%

    Day after tomorrow, 27 August, Tuesday

    Time Temperature Precipitation Wind Pressure Humidity
    00:00 +20°C° 0 mm 4 mps 751 mmHg 45%
    01:00 +19°C° 0 mm 4 mps 751 mmHg 46%
    02:00 +19°C° 0 mm 3 mps 750 mmHg 48%
    03:00 +18°C° 0 mm 3 mps 750 mmHg 49%
    04:00 +18°C° 0 mm 3 mps 750 mmHg 50%
    05:00 +17°C° 0 mm 3 mps 750 mmHg 52%
    06:00 +17°C° 0 mm 3 mps 750 mmHg 53%
    07:00 +19°C° 0 mm 3 mps 750 mmHg 49%
    08:00 +21°C° 0 mm 3 mps 750 mmHg 44%
    09:00 +23°C° 0 mm 4 mps 750 mmHg 40%
    10:00 +25°C° 0 mm 4 mps 750 mmHg 36%
    11:00 +27°C° 0 mm 3 mps 749 mmHg 32%
    12:00 +28°C° 0 mm 3 mps 749 mmHg 28%
    13:00 +28°C° 0 mm 3 mps 749 mmHg 26%
    14:00 +29°C° 0 mm 3 mps 749 mmHg 25%
    15:00 +29°C° 0 mm 4 mps 748 mmHg 24%
    16:00 +28°C° 0 mm 4 mps 748 mmHg 27%
    17:00 +28°C° 0 mm 4 mps 748 mmHg 29%
    18:00 +27°C° 0 mm 4 mps 748 mmHg 32%
    19:00 +25°C° 0 mm 4 mps 748 mmHg 35%
    20:00 +22°C° 0 mm 3 mps 748 mmHg 38%
    21:00 +21°C° 0 mm 3 mps 748 mmHg 41%
    22:00 +20°C° 0 mm 3 mps 748 mmHg 43%
    23:00 +20°C° 0 mm 2 mps 748 mmHg 45%

    28 August, Wednesday

    Time Temperature Precipitation Wind Pressure Humidity
    00:00 +19°C° 0 mm 2 mps 748 mmHg 46%
    01:00 +19°C° 0 mm 2 mps 748 mmHg 52%
    02:00 +19°C° 0 mm 2 mps 748 mmHg 57%
    03:00 +18°C° 0 mm 3 mps 747 mmHg 62%
    04:00 +18°C° 0 mm 3 mps 748 mmHg 67%
    05:00 +18°C° 0 mm 3 mps 748 mmHg 72%
    06:00 +17°C° 0 mm 3 mps 748 mmHg 77%
    07:00 +19°C° 0 mm 3 mps 748 mmHg 70%
    08:00 +20°C° 0 mm 4 mps 748 mmHg 64%
    09:00 +21°C° 0 mm 4 mps 748 mmHg 58%
    10:00 +22°C° 0 mm 5 mps 748 mmHg 52%
    11:00 +23°C° 0 mm 5 mps 748 mmHg 46%
    12:00 +26°C° 0 mm 5 mps 748 mmHg 40%
    13:00 +26°C° 0 mm 5 mps 748 mmHg 38%
    14:00 +26°C° 0 mm 5 mps 748 mmHg 36%
    15:00 +26°C° 0 mm 5 mps 748 mmHg 34%
    16:00 +25°C° 0 mm 5 mps 748 mmHg 35%
    17:00 +25°C° 0 mm 5 mps 748 mmHg 36%
    18:00 +23°C° 0 mm 5 mps 748 mmHg 38%
    19:00 +21°C° 0 mm 4 mps 748 mmHg 41%
    20:00 +20°C° 0 mm 4 mps 748 mmHg 43%
    21:00 +18°C° 0 mm 4 mps 749 mmHg 46%
    22:00 +17°C° 0 mm 4 mps 749 mmHg 49%
    23:00 +17°C° 0 mm 4 mps 749 mmHg 51%

    29 August, Thursday

    Time Temperature Precipitation Wind Pressure Humidity
    00:00 +15°C° 0 mm 4 mps 750 mmHg 53%
    01:00 +14°C° 0 mm 4 mps 750 mmHg 55%
    02:00 +13°C° 0 mm 4 mps 750 mmHg 57%
    03:00 +12°C° 0 mm 4 mps 750 mmHg 60%
    04:00 +11°C° 0 mm 4 mps 750 mmHg 61%
    05:00 +11°C° 0 mm 4 mps 750 mmHg 63%
    06:00 +10°C° 0 mm 4 mps 751 mmHg 65%
    07:00 +11°C° 0 mm 4 mps 751 mmHg 60%
    08:00 +13°C° 0 mm 4 mps 751 mmHg 56%
    09:00 +14°C° 0 mm 5 mps 751 mmHg 52%
    10:00 +15°C° 0 mm 5 mps 751 mmHg 49%
    11:00 +17°C° 0 mm 5 mps 751 mmHg 45%
    12:00 +19°C° 0 mm 5 mps 751 mmHg 42%
    13:00 +20°C° 0 mm 5 mps 751 mmHg 40%
    14:00 +20°C° 0 mm 5 mps 750 mmHg 38%
    15:00 +21°C° 0 mm 5 mps 750 mmHg 36%
    16:00 +20°C° 0 mm 5 mps 750 mmHg 36%
    17:00 +20°C° 0 mm 5 mps 750 mmHg 37%
    18:00 +19°C° 0 mm 5 mps 750 mmHg 38%
    19:00 +17°C° 0 mm 5 mps 750 mmHg 42%
    20:00 +17°C° 0 mm 4 mps 750 mmHg 45%
    21:00 +14°C° 0 mm 4 mps 750 mmHg 48%
    22:00 +14°C° 0 mm 4 mps 750 mmHg 50%
    23:00 +13°C° 0 mm 4 mps 750 mmHg 52%

    30 August, Friday

    Time Temperature Precipitation Wind Pressure Humidity
    00:00 +13°C° 0 mm 4 mps 751 mmHg 53%
    01:00 +12°C° 0 mm 4 mps 750 mmHg 55%
    02:00 +12°C° 0 mm 4 mps 750 mmHg 57%
    03:00 +11°C° 0 mm 4 mps 750 mmHg 59%
    04:00 +11°C° 0 mm 4 mps 750 mmHg 61%
    05:00 +10°C° 0 mm 4 mps 750 mmHg 63%
    06:00 +10°C° 0 mm 4 mps 750 mmHg 64%
    07:00 +11°C° 0 mm 4 mps 751 mmHg 58%
    08:00 +13°C° 0 mm 5 mps 751 mmHg 51%
    09:00 +15°C° 0 mm 5 mps 751 mmHg 45%
    10:00 +16°C° 0 mm 5 mps 751 mmHg 40%
    11:00 +19°C° 0 mm 5 mps 751 mmHg 36%
    12:00 +20°C° 0 mm 5 mps 751 mmHg 31%
    13:00 +21°C° 0 mm 5 mps 751 mmHg 29%
    14:00 +21°C° 0 mm 5 mps 751 mmHg 27%
    15:00 +22°C° 0 mm 5 mps 750 mmHg 25%
    16:00 +21°C° 0 mm 5 mps 750 mmHg 26%
    17:00 +21°C° 0 mm 5 mps 750 mmHg 28%
    18:00 +21°C° 0 mm 5 mps 750 mmHg 29%
    19:00 +19°C° 0 mm 4 mps 750 mmHg 33%
    20:00 +18°C° 0 mm 4 mps 751 mmHg 37%
    21:00 +16°C° 0 mm 3 mps 751 mmHg 41%
    22:00 +15°C° 0 mm 4 mps 751 mmHg 49%
    23:00 +14°C° 0 mm 4 mps 751 mmHg 56%
    Show more